[[{"header":{"parameterUnit":"m.s-1","parameterCategory":1,"la1":30.2992,"la2":30.254,"lo1":-89.0895,"lo2":-89.0443,"dy":0.0025,"dx":0.0025,"nx":19,"ny":19,"refTime":"2026-05-20T09:00:00:Z","depth":0,"parameterNumber":2,"parameterNumberName":"U-component_of_WINDS"},"data":[0,0,0,-2.3156,-2.3157,-2.3221,-2.3221,-2.3317,-2.3318,0,0,0,0,0,0,0,0,0,0,0,-2.3144,-2.3145,-2.3156,-2.3158,-2.3221,-2.3221,-2.3317,-2.3318,0,0,0,0,0,0,0,0,0,0,0,-2.3143,-2.3144,-2.3145,-2.3158,-2.3221,-2.3221,-2.3316,-2.3264,0,0,0,0,0,0,0,0,0,0,-2.32,-2.3195,-2.3144,-2.3145,-2.3158,-2.3221,-2.3221,-2.3261,-2.3267,-2.3294,0,-2.3317,0,-2.3319,-2.3325,-2.3325,0,0,0,-2.3153,-2.319,-2.3201,-2.3146,-2.3159,-2.3221,-2.3191,-2.3264,-2.3271,-2.3302,-2.3318,-2.3322,-2.3321,-2.3326,-2.3326,-2.3491,-2.3492,0,0,-2.315,-2.3159,-2.3196,-2.3205,-2.3194,-2.3189,-2.3193,-2.3268,-2.3288,-2.3319,-2.3324,-2.3322,-2.3326,-2.3327,-2.349,-2.3492,0,0,0,-2.3143,-2.3157,-2.3166,-2.3202,-2.3212,-2.3191,-2.3196,-2.3284,-2.3286,-2.3325,-2.3323,-2.3327,-2.3328,-2.3489,-2.3491,-2.3548,0,0,0,-2.314,-2.3153,-2.3164,-2.3171,-2.3211,-2.3248,-2.321,-2.3281,-2.3289,-2.3323,-2.3327,-2.3329,-2.3488,-2.349,-2.3544,-2.3572,0,0,0,-2.3137,-2.3152,-2.3163,-2.3171,-2.3198,-2.3247,-2.3253,-2.3283,-2.3289,-2.3325,-2.333,-2.3488,-2.349,-2.354,-2.3567,-2.3619,0,0,0,-2.3137,-2.3213,-2.3164,-2.3249,-2.3198,-2.3281,-2.3252,-2.3314,-2.3353,-2.3328,-2.3488,-2.3491,-2.3539,-2.3563,-2.3615,-2.3663,-2.3684,0,0,-2.3238,-2.3225,-2.3274,-2.3233,-2.3327,-2.3271,-2.3375,-2.3401,-2.3397,-2.3461,-2.3465,-2.3545,-2.3566,-2.3618,-2.3801,-2.3818,0,0,0,-2.3309,-2.3345,-2.3368,-2.3404,-2.3426,-2.3448,-2.3458,-2.3469,-2.3522,-2.3431,-2.3578,-2.359,-2.362,-2.3643,-2.3657,-2.3683,-2.3502,-2.3502,-2.3501,-2.3463,-2.3454,-2.3535,-2.3534,-2.3571,-2.3582,-2.3611,-2.3627,-2.3607,-2.3643,-2.3661,-2.3773,-2.38,-2.3811,-2.3837,-2.3687,-2.3687,-2.3687,-2.3687,-2.3609,-2.3657,-2.3631,-2.37,-2.3691,-2.375,-2.3765,-2.375,-2.3805,-2.3758,-2.3784,-2.3732,-2.3829,-2.3852,-2.3691,-2.3691,-2.369,-2.369,-2.369,-2.3708,-2.3729,-2.3741,-2.3794,-2.3838,-2.3836,-2.389,-2.3881,-2.3872,-2.3898,-2.3917,-2.3916,-2.3914,-2.3908,-2.3909,-2.3909,-2.391,-2.391,-2.391,-2.3804,-2.3816,-2.3861,-2.3894,-2.3917,-2.3948,-2.3963,-2.3986,-2.4011,-2.4,-2.4,-2.3977,-2.3841,-2.3806,-2.3916,-2.3915,-2.3914,-2.3914,-2.3913,-2.3953,-2.3918,-2.3989,-2.4013,-2.4051,-2.4096,-2.4085,-2.4135,-2.4154,-2.4181,-2.4155,-2.4055,-2.4042,-2.403,-2.4002,-2.4156,-2.4156,-2.4156,-2.4156,-2.4035,-2.4028,-2.4099,-2.4138,-2.4176,-2.4173,-2.4257,-2.4271,-2.4281,-2.4293,-2.427,-2.4231,-2.422,-2.4213,-2.4198,-2.4171,-2.4365,-2.4365,-2.4365,-2.4126,-2.4123,-2.4193,-2.4201,-2.4232,-2.4259,-2.4338,-2.4387,-2.4391,-2.4374,-2.4302,-2.4293,-2.4231,-2.4211,-2.4189,-2.4166,-2.4116,0,0]},{"header":{"parameterUnit":"m.s-1","parameterCategory":1,"la1":30.2992,"la2":30.254,"lo1":-89.0895,"lo2":-89.0443,"dy":0.0025,"dx":0.0025,"nx":19,"ny":19,"refTime":"2026-05-20T09:00:00:Z","depth":0,"parameterNumber":3,"parameterNumberName":"V-component_of_WINDS"},"data":[0,0,0,2.7148,2.7145,2.7027,2.7027,2.6864,2.6863,0,0,0,0,0,0,0,0,0,0,0,2.7179,2.7177,2.7148,2.7145,2.7027,2.7027,2.6865,2.6863,0,0,0,0,0,0,0,0,0,0,0,2.7179,2.7178,2.7176,2.7144,2.7028,2.7027,2.6865,2.6957,0,0,0,0,0,0,0,0,0,0,2.7073,2.7099,2.7178,2.7176,2.7144,2.7028,2.7027,2.6962,2.6951,2.6914,0,2.6882,0,2.687,2.6851,2.6851,0,0,0,2.7147,2.7107,2.708,2.7176,2.7143,2.7028,2.7081,2.6956,2.6944,2.69,2.6879,2.6874,2.6867,2.685,2.685,2.663,2.6629,0,0,2.7153,2.7154,2.7088,2.7072,2.7093,2.7085,2.7077,2.6949,2.6926,2.6879,2.687,2.6864,2.6849,2.6848,2.6631,2.663,0,0,0,2.7171,2.7159,2.7135,2.7078,2.7058,2.7081,2.7073,2.6932,2.6924,2.6868,2.6863,2.6848,2.6846,2.6632,2.6631,2.6576,0,0,0,2.7175,2.7169,2.7137,2.7136,2.7061,2.6994,2.7058,2.6933,2.6918,2.6863,2.6848,2.6845,2.6634,2.6631,2.6581,2.655,0,0,0,2.7187,2.7171,2.7153,2.7137,2.7087,2.6996,2.6981,2.693,2.6914,2.6851,2.6844,2.6635,2.6632,2.6584,2.6556,2.6492,0,0,0,2.72,2.7105,2.7152,2.7042,2.7088,2.6965,2.6982,2.689,2.6829,2.6847,2.6634,2.6631,2.6586,2.656,2.6496,2.6438,2.6414,0,0,2.7081,2.7091,2.7026,2.7065,2.6934,2.6983,2.6843,2.6785,2.6776,2.6678,2.6673,2.6579,2.6557,2.6493,2.6282,2.6263,0,0,0,2.6988,2.6942,2.6907,2.6851,2.6806,2.6763,2.6727,2.6705,2.6623,2.6727,2.6539,2.6526,2.6488,2.646,2.6444,2.6411,2.6618,2.6619,2.6619,2.6819,2.6816,2.6708,2.669,2.6634,2.6598,2.6551,2.6515,2.6526,2.6482,2.6452,2.6325,2.6293,2.6281,2.6246,2.6422,2.6422,2.6422,2.6422,2.6642,2.6575,2.6593,2.6496,2.6491,2.6408,2.6368,2.6378,2.6298,2.6348,2.6314,2.6367,2.626,2.623,2.6418,2.6418,2.6419,2.6419,2.6419,2.653,2.6497,2.6474,2.6391,2.6326,2.631,2.6233,2.6231,2.6228,2.6195,2.6163,2.6164,2.6163,2.618,2.618,2.6179,2.6179,2.6179,2.6178,2.6422,2.6398,2.6334,2.6278,2.6241,2.6191,2.6153,2.6115,2.6072,2.6076,2.6076,2.609,2.6252,2.6291,2.6171,2.6173,2.6174,2.6174,2.6175,2.6243,2.6283,2.6185,2.6148,2.608,2.6015,2.6015,2.5937,2.5905,2.5866,2.5888,2.6008,2.6017,2.603,2.6063,2.5891,2.5891,2.5891,2.5891,2.6147,2.6153,2.6051,2.5992,2.5932,2.5921,2.5807,2.5775,2.5748,2.5727,2.5752,2.5796,2.5809,2.581,2.5828,2.5858,2.5638,2.5638,2.5637,2.6036,2.6035,2.594,2.5917,2.5863,2.5817,2.5709,2.5636,2.5614,2.5627,2.5711,2.5721,2.5792,2.5815,2.583,2.5857,2.5913,0,0]}]]